Ketchikan, AK

9:46 AM AKST on November 13, 2018 (GMT -0900)
Ketchikan International

Weather History for PAKT - October, 2017

Change the Weather History Date:

Wednesday, October 4, 2017

  Actual Average Record
Temperature  
Mean Temperature 50 °F -  
Max Temperature 59 °F 53 °F 62 °F (1952)
Min Temperature 41 °F 43 °F 30 °F (1954)
Degree Days  
Heating Degree Days 15    
Moisture  
Dew Point 41 °F    
Average Humidity 80    
Maximum Humidity 100    
Minimum Humidity 49    
Precipitation  
Precipitation 0.00 in - - ()
Sea Level Pressure  
Sea Level Pressure 30.22 in    
Wind  
Wind Speed 6 mph (SE)    
Max Wind Speed 10 mph    
Max Gust Speed -    
Visibility 10 miles    
Events      
Averages and records for this station are not official NWS values.
T = Trace of Precipitation, MM = Missing Value Source: NWS Daily Summary

Daily Weather History Graph

Daily Weather History Graph

Search for Another Location

Airport or City:

Astronomy

Oct. 04, 2017 Rise Set
Actual Time 6:56 AM AKDT 6:13 PM AKDT
Civil Twilight 6:19 AM AKDT 6:49 PM AKDT
Nautical Twilight 5:37 AM AKDT 7:32 PM AKDT
Astronomical Twilight 4:53 AM AKDT 8:15 PM AKDT
Moon 6:19 PM AKDT (10/4) 5:16 AM AKDT (10/4)
Length of Visible Light 12h 30m
Length of Day
11h 17m
Waxing Gibbous, 99% of the Moon is Illuminated
Oct 4
Waxing Gibbous
Oct 5
Full
Oct 12
Last Quarter
Oct 19
New
Oct 27
First Quarter

Hourly Weather History & Observations

Time (AKDT) Temp. Windchill Dew Point Humidity Pressure Visibility Wind Dir Wind Speed Gust Speed Precip Events Conditions
12:53 AM 44.1 °F 40.8 °F 41.0 °F 89% 30.27 in 10.0 mi SSE 5.8 mph - N/A   Clear
2:53 AM 43.0 °F 40.3 °F 41.0 °F 93% 30.27 in 10.0 mi SSE 4.6 mph - N/A   Clear
3:53 AM 42.1 °F 39.2 °F 39.9 °F 92% 30.25 in 10.0 mi South 4.6 mph - N/A   Clear
4:53 AM 41.0 °F 39.0 °F 39.9 °F 96% 30.26 in 10.0 mi South 3.5 mph - N/A   Clear
5:53 AM 41.0 °F 37.1 °F 39.9 °F 96% 30.24 in 10.0 mi SE 5.8 mph - N/A   Clear
6:03 AM 41.0 °F 36.4 °F 41.0 °F 100% 30.23 in 10.0 mi SE 6.9 mph - N/A   Clear
6:53 AM 42.1 °F 37.7 °F 39.9 °F 92% 30.24 in 10.0 mi ESE 6.9 mph - N/A   Partly Cloudy
7:53 AM 44.6 °F 42.2 °F 41.0 °F 87% 30.23 in 10.0 mi SE 4.6 mph - N/A   Partly Cloudy
8:53 AM 46.4 °F 44.3 °F 42.8 °F 87% 30.23 in 10.0 mi SE 4.6 mph - N/A   Partly Cloudy
9:53 AM 48.2 °F - 42.8 °F 82% 30.24 in 10.0 mi ESE 3.5 mph - N/A   Clear
10:53 AM 53.6 °F - 42.8 °F 67% 30.23 in 10.0 mi SE 8.1 mph - N/A   Clear
11:53 AM 55.4 °F - 42.8 °F 63% 30.22 in 10.0 mi ESE 10.4 mph - N/A   Clear
12:53 PM 57.2 °F - 41.0 °F 55% 30.21 in 10.0 mi ESE 10.4 mph - N/A   Clear
1:53 PM 57.9 °F - 39.0 °F 49% 30.20 in 10.0 mi SE 8.1 mph - N/A   Clear
2:53 PM 59.0 °F - 39.9 °F 49% 30.20 in 10.0 mi ESE 9.2 mph - N/A   Clear
3:53 PM 57.9 °F - 44.1 °F 60% 30.19 in 10.0 mi ESE 10.4 mph - N/A   Clear
4:53 PM 54.0 °F - 42.1 °F 64% 30.18 in 10.0 mi SSE 4.6 mph - N/A   Clear
5:53 PM 50.0 °F - 41.0 °F 71% 30.18 in 10.0 mi SSE 8.1 mph - N/A   Clear
6:53 PM 44.1 °F 41.5 °F 39.9 °F 85% 30.19 in 10.0 mi South 4.6 mph - N/A   Clear
7:53 PM 45.0 °F 43.5 °F 41.0 °F 86% 30.18 in 10.0 mi SSE 3.5 mph - N/A   Clear
8:53 PM 44.1 °F 42.5 °F 41.0 °F 89% 30.17 in 10.0 mi SE 3.5 mph - N/A   Clear
9:53 PM 42.1 °F 38.4 °F 39.9 °F 92% 30.19 in 10.0 mi SSW 5.8 mph - N/A   Clear
10:53 PM 43.0 °F 41.3 °F 41.0 °F 93% 30.18 in 10.0 mi SE 3.5 mph - N/A   Clear
11:53 PM 45.0 °F 41.8 °F 42.1 °F 90% 30.18 in 10.0 mi SSE 5.8 mph - N/A   Clear